User: anonymous   Login
Location: Unspecified
(0.0000°N, 0.0000°E)
Time: 06:02:22
(UTC+00:00)
Language:

RAX-2 - Orbit

View from above orbital plane
View from above orbital plane
View from above satellite
View from above satellite

Ground track
Ground track

The orbit data is extracted from the following two-line orbital elements,

1 37853U 11061D   19083.84695175  .00000666  00000-0  44514-4 0  9991
2 37853 101.7233 287.4102 0170689 343.9632  15.6214 15.03244976403591
Epoch (UTC): 24 March 2019 20:19:36
Eccentricity: 0.0170689
inclination: 101.7233°
perigee height: 438 km
apogee height: 675 km
right ascension of ascending node: 287.4102°
argument of perigee: 343.9632°
revolutions per day: 15.03244976
mean anomaly at epoch: 15.6214°
orbit number at epoch: 40359

The dashed part of the orbit path shows where the satellite is in the earth's shadow,  

DLR